Location: Bli��� Lhota
(48.7570°N, 14.0120°E)
Time: 02:47:16
(UTC+00:00)

SPOT 5 - Pass Details

Date: 18 September 2020
Orbit: 623 x 814 km, 98.3° (Epoch: 24 October)

Event Time Altitude Azimuth Distance (km) Brightness Sun altitude
Exits shadow 20:40:09 48° 351° (N) 1,031 3.8 -31.7°
Drops below altitude 10° 20:43:56 10° 347° (NNW) 2,391 6.2 -32.1°
Sets 20:46:19 0° 347° (NNW) 3,339 7.2 -32.3°
